Time,TemperatureF,DewpointF,PressureIn,WindDirection,WindDirectionDegrees,WindSpeedMPH,WindSpeedGustMPH,Humidity,HourlyPrecipIn,Conditions,Clouds,dailyrainin,SoftwareType,DateUTC
2013-03-11 06:48:00,34.9,25.3,0.00,North,0,0.0,0.0,68,0.00,,,0.00,WUHU21623XXSP,2013-03-11 10:48:00,
2013-03-11 06:53:00,34.9,25.3,0.00,North,0,0.0,0.0,68,0.00,,,0.00,WUHU21623XXSP,2013-03-11 10:53:00,
2013-03-11 06:58:00,34.9,25.3,0.00,North,0,0.0,0.0,68,0.00,,,0.00,WUHU21623XXSP,2013-03-11 10:58:00,
2013-03-11 07:03:00,34.9,25.3,0.00,North,0,0.0,0.0,68,0.00,,,0.00,WUHU21623XXSP,2013-03-11 11:03:00,
2013-03-11 07:08:00,34.9,25.3,0.00,North,0,0.0,0.0,68,0.00,,,0.00,WUHU21623XXSP,2013-03-11 11:08:00,
2013-03-11 07:13:00,34.9,25.3,0.00,North,0,0.0,0.0,68,0.00,,,0.00,WUHU21623XXSP,2013-03-11 11:13:00,
2013-03-11 08:18:00,35.2,26.6,0.00,North,0,0.0,0.0,71,0.00,,,0.00,WUHU21623XXSP,2013-03-11 12:18:00,
2013-03-11 08:23:00,35.4,26.7,0.00,North,0,0.0,0.0,71,0.00,,,0.00,WUHU21623XXSP,2013-03-11 12:23:00,
2013-03-11 08:28:00,35.4,26.9,0.00,North,0,0.0,0.0,71,0.00,,,0.00,WUHU21623XXSP,2013-03-11 12:28:00,
2013-03-11 08:33:00,35.8,26.9,0.00,North,0,0.0,0.0,72,0.00,,,0.00,WUHU21623XXSP,2013-03-11 12:33:00,
2013-03-11 08:38:00,35.8,27.6,0.00,North,0,0.0,0.0,72,0.00,,,0.00,WUHU21623XXSP,2013-03-11 12:38:00,
2013-03-11 08:43:00,36.3,27.6,0.00,North,0,0.0,0.0,72,0.00,,,0.00,WUHU21623XXSP,2013-03-11 12:43:00,
2013-03-11 08:48:00,36.3,28.1,0.00,North,0,0.0,0.0,72,0.00,,,0.00,WUHU21623XXSP,2013-03-11 12:48:00,
2013-03-11 08:53:00,36.5,28.3,0.00,North,0,0.0,0.0,73,0.00,,,0.00,WUHU21623XXSP,2013-03-11 12:53:00,
2013-03-11 08:58:00,37.0,29.2,0.00,North,0,0.0,0.0,73,0.00,,,0.00,WUHU21623XXSP,2013-03-11 12:58:00,
2013-03-11 09:03:00,37.2,29.2,0.00,North,0,0.0,0.0,74,0.00,,,0.00,WUHU21623XXSP,2013-03-11 13:03:00,
2013-03-11 09:08:00,37.2,29.7,0.00,North,0,0.0,0.0,74,0.00,,,0.00,WUHU21623XXSP,2013-03-11 13:08:00,
2013-03-11 09:13:00,37.6,30.0,0.00,North,0,0.0,0.0,74,0.00,,,0.00,WUHU21623XXSP,2013-03-11 13:13:00,
2013-03-11 09:18:00,37.6,30.0,0.00,North,0,0.0,0.0,74,0.00,,,0.00,WUHU21623XXSP,2013-03-11 13:18:00,
2013-03-11 09:23:00,37.6,30.0,0.00,North,0,0.0,0.0,75,0.00,,,0.00,WUHU21623XXSP,2013-03-11 13:23:00,
2013-03-11 09:28:00,37.6,30.4,0.00,North,0,0.0,0.0,75,0.00,,,0.00,WUHU21623XXSP,2013-03-11 13:28:00,
2013-03-11 09:33:00,37.6,30.4,0.00,North,0,0.0,0.0,75,0.00,,,0.00,WUHU21623XXSP,2013-03-11 13:33:00,
2013-03-11 09:38:00,37.6,30.7,0.00,North,0,0.0,0.0,76,0.00,,,0.00,WUHU21623XXSP,2013-03-11 13:38:00,
2013-03-11 09:43:00,40.3,30.7,0.00,North,0,0.0,0.0,76,0.00,,,0.00,WUHU21623XXSP,2013-03-11 13:43:00,
2013-03-11 09:49:00,40.3,33.3,0.00,North,0,0.0,0.0,76,0.00,,,0.00,WUHU21623XXSP,2013-03-11 13:49:00,
2013-03-11 09:54:00,40.3,33.3,0.00,North,0,0.0,0.0,76,0.00,,,0.00,WUHU21623XXSP,2013-03-11 13:54:00,
2013-03-11 09:59:00,40.3,33.3,0.00,North,0,0.0,0.0,76,0.00,,,0.00,WUHU21623XXSP,2013-03-11 13:59:00,
2013-03-11 10:04:00,41.7,34.7,0.00,North,0,0.0,0.0,76,0.00,,,0.00,WUHU21623XXSP,2013-03-11 14:04:00,
2013-03-11 10:09:00,42.1,35.3,0.00,North,0,0.0,0.0,77,0.00,,,0.00,WUHU21623XXSP,2013-03-11 14:09:00,
2013-03-11 10:14:00,42.6,35.9,0.00,North,0,0.0,0.0,77,0.00,,,0.00,WUHU21623XXSP,2013-03-11 14:14:00,
2013-03-11 10:19:00,43.0,36.2,0.00,North,0,0.0,0.0,77,0.00,,,0.00,WUHU21623XXSP,2013-03-11 14:19:00,
2013-03-11 10:24:00,43.7,36.8,0.00,North,0,0.0,0.0,77,0.00,,,0.00,WUHU21623XXSP,2013-03-11 14:24:00,
2013-03-11 10:29:00,44.2,37.1,0.00,North,0,0.0,0.0,77,0.00,,,0.00,WUHU21623XXSP,2013-03-11 14:29:00,
2013-03-11 10:34:00,44.6,37.5,0.00,North,0,0.0,0.0,77,0.00,,,0.00,WUHU21623XXSP,2013-03-11 14:34:00,
2013-03-11 10:39:00,44.6,37.8,0.00,North,0,0.0,0.0,77,0.00,,,0.00,WUHU21623XXSP,2013-03-11 14:39:00,
2013-03-11 10:44:00,44.6,37.8,0.00,North,0,0.0,0.0,77,0.00,,,0.00,WUHU21623XXSP,2013-03-11 14:44:00,
2013-03-11 10:49:00,44.6,37.8,0.00,North,0,0.0,0.0,77,0.00,,,0.00,WUHU21623XXSP,2013-03-11 14:49:00,
2013-03-11 10:54:00,46.2,38.6,0.00,North,0,0.0,0.0,75,0.00,,,0.00,WUHU21623XXSP,2013-03-11 14:54:00,
2013-03-11 10:59:00,46.6,38.8,0.00,North,0,0.0,0.0,74,0.00,,,0.00,WUHU21623XXSP,2013-03-11 14:59:00,
2013-03-11 11:04:00,46.9,39.1,0.00,North,0,0.0,0.0,73,0.00,,,0.00,WUHU21623XXSP,2013-03-11 15:04:00,
2013-03-11 11:09:00,46.9,38.7,0.00,North,0,0.0,0.0,73,0.00,,,0.00,WUHU21623XXSP,2013-03-11 15:09:00,
2013-03-11 11:14:00,46.9,38.7,0.00,North,0,0.0,0.0,73,0.00,,,0.00,WUHU21623XXSP,2013-03-11 15:14:00,
2013-03-11 11:19:00,46.9,38.7,0.00,North,0,0.0,0.0,73,0.00,,,0.00,WUHU21623XXSP,2013-03-11 15:19:00,
2013-03-11 11:24:00,48.0,39.5,0.00,North,0,0.0,0.0,73,0.00,,,0.00,WUHU21623XXSP,2013-03-11 15:24:00,
2013-03-11 11:29:00,48.4,39.7,0.00,North,0,0.0,0.0,72,0.00,,,0.00,WUHU21623XXSP,2013-03-11 15:29:00,
2013-03-11 11:34:00,48.7,40.1,0.00,North,0,0.0,0.0,72,0.00,,,0.00,WUHU21623XXSP,2013-03-11 15:34:00,
2013-03-11 11:39:00,48.9,40.2,0.00,North,0,0.0,0.0,72,0.00,,,0.00,WUHU21623XXSP,2013-03-11 15:39:00,
2013-03-11 11:44:00,49.6,40.6,0.00,North,0,0.0,0.0,71,0.00,,,0.00,WUHU21623XXSP,2013-03-11 15:44:00,
2013-03-11 11:49:00,49.6,40.6,0.00,North,0,0.0,0.0,71,0.00,,,0.00,WUHU21623XXSP,2013-03-11 15:49:00,
2013-03-11 11:54:00,50.5,41.5,0.00,North,0,0.0,0.0,71,0.00,,,0.00,WUHU21623XXSP,2013-03-11 15:54:00,
2013-03-11 11:59:00,51.1,41.7,0.00,North,0,0.0,0.0,71,0.00,,,0.00,WUHU21623XXSP,2013-03-11 15:59:00,
2013-03-11 12:04:00,51.4,41.7,0.00,North,0,0.0,0.0,70,0.00,,,0.00,WUHU21623XXSP,2013-03-11 16:04:00,
2013-03-11 12:09:00,51.4,42.1,0.00,North,0,0.0,0.0,70,0.00,,,0.00,WUHU21623XXSP,2013-03-11 16:09:00,
2013-03-11 12:14:00,51.4,42.1,0.00,North,0,0.0,0.0,70,0.00,,,0.00,WUHU21623XXSP,2013-03-11 16:14:00,
2013-03-11 12:19:00,51.4,42.1,0.00,North,0,0.0,0.0,70,0.00,,,0.00,WUHU21623XXSP,2013-03-11 16:19:00,
2013-03-11 12:24:00,51.4,42.1,0.00,North,0,0.0,0.0,70,0.00,,,0.00,WUHU21623XXSP,2013-03-11 16:24:00,
2013-03-11 12:29:00,53.1,43.6,0.00,North,0,0.0,0.0,70,0.00,,,0.00,WUHU21623XXSP,2013-03-11 16:29:00,
2013-03-11 12:34:00,53.1,43.6,0.00,North,0,0.0,0.0,70,0.00,,,0.00,WUHU21623XXSP,2013-03-11 16:34:00,
2013-03-11 12:39:00,53.1,43.6,0.00,North,0,0.0,0.0,70,0.00,,,0.00,WUHU21623XXSP,2013-03-11 16:39:00,
2013-03-11 12:44:00,53.1,43.6,0.00,North,0,0.0,0.0,70,0.00,,,0.00,WUHU21623XXSP,2013-03-11 16:44:00,
2013-03-11 12:49:00,53.8,44.2,0.00,North,0,0.0,0.0,70,0.00,,,0.00,WUHU21623XXSP,2013-03-11 16:49:00,
2013-03-11 12:54:00,53.8,44.2,0.00,North,0,0.0,0.0,70,0.00,,,0.00,WUHU21623XXSP,2013-03-11 16:54:00,
2013-03-11 12:59:00,53.8,44.2,0.00,North,0,0.0,0.0,70,0.00,,,0.00,WUHU21623XXSP,2013-03-11 16:59:00,
2013-03-11 13:04:00,53.8,44.2,0.00,North,0,0.0,0.0,70,0.00,,,0.00,WUHU21623XXSP,2013-03-11 17:04:00,
2013-03-11 18:37:00,61.0,48.8,0.00,North,0,0.0,0.0,64,0.00,,,0.00,WUHU21623XXSP,2013-03-11 22:37:00,
2013-03-11 18:42:00,61.0,48.8,0.00,North,0,0.0,0.0,64,0.00,,,0.00,WUHU21623XXSP,2013-03-11 22:42:00,
2013-03-11 18:47:00,60.6,48.4,0.00,North,0,0.0,0.0,64,0.00,,,0.00,WUHU21623XXSP,2013-03-11 22:47:00,
2013-03-11 18:52:00,60.6,48.4,0.00,North,0,0.0,0.0,64,0.00,,,0.00,WUHU21623XXSP,2013-03-11 22:52:00,
2013-03-11 18:58:00,60.6,48.4,0.00,North,0,0.0,0.0,64,0.00,,,0.00,WUHU21623XXSP,2013-03-11 22:58:00,
2013-03-11 19:03:00,60.4,48.2,0.00,North,0,0.0,0.0,64,0.00,,,0.00,WUHU21623XXSP,2013-03-11 23:03:00,
2013-03-11 19:08:00,60.4,48.2,0.00,North,0,0.0,0.0,64,0.00,,,0.00,WUHU21623XXSP,2013-03-11 23:08:00,
2013-03-11 19:13:00,60.4,48.2,0.00,North,0,0.0,0.0,64,0.00,,,0.00,WUHU21623XXSP,2013-03-11 23:13:00,
2013-03-11 19:18:00,60.1,48.3,0.00,North,0,0.0,0.0,65,0.00,,,0.00,WUHU21623XXSP,2013-03-11 23:18:00,
2013-03-11 19:23:00,60.1,48.3,0.00,North,0,0.0,0.0,65,0.00,,,0.00,WUHU21623XXSP,2013-03-11 23:23:00,
2013-03-11 19:28:00,60.1,48.3,0.00,North,0,0.0,0.0,65,0.00,,,0.00,WUHU21623XXSP,2013-03-11 23:28:00,
2013-03-11 19:33:00,60.1,48.3,0.00,North,0,0.0,0.0,65,0.00,,,0.00,WUHU21623XXSP,2013-03-11 23:33:00,
2013-03-11 19:38:00,60.1,48.3,0.00,North,0,0.0,0.0,65,0.00,,,0.00,WUHU21623XXSP,2013-03-11 23:38:00,
2013-03-11 19:43:00,60.1,48.3,0.00,North,0,0.0,0.0,65,0.00,,,0.00,WUHU21623XXSP,2013-03-11 23:43:00,
2013-03-11 19:48:00,60.1,48.3,0.00,North,0,0.0,0.0,65,0.00,,,0.00,WUHU21623XXSP,2013-03-11 23:48:00,
2013-03-11 19:53:00,60.1,48.3,0.00,North,0,0.0,0.0,65,0.00,,,0.00,WUHU21623XXSP,2013-03-11 23:53:00,
2013-03-11 19:58:00,60.1,48.3,0.00,North,0,0.0,0.0,65,0.00,,,0.00,WUHU21623XXSP,2013-03-11 23:58:00,
2013-03-11 20:03:00,60.1,48.3,0.00,North,0,0.0,0.0,65,0.00,,,0.00,WUHU21623XXSP,2013-03-12 00:03:00,
2013-03-11 20:54:00,57.6,46.6,0.00,North,0,0.0,0.0,67,0.00,,,0.00,WUHU21623XXSP,2013-03-12 00:54:00,
2013-03-11 20:59:00,57.4,46.5,0.00,North,0,0.0,0.0,67,0.00,,,0.00,WUHU21623XXSP,2013-03-12 00:59:00,
2013-03-11 21:04:00,57.4,46.5,0.00,North,0,0.0,0.0,67,0.00,,,0.00,WUHU21623XXSP,2013-03-12 01:04:00,
2013-03-11 21:09:00,57.4,46.5,0.00,North,0,0.0,0.0,67,0.00,,,0.00,WUHU21623XXSP,2013-03-12 01:09:00,
2013-03-11 21:14:00,57.4,46.5,0.00,North,0,0.0,0.0,67,0.00,,,0.00,WUHU21623XXSP,2013-03-12 01:14:00,
2013-03-11 21:19:00,57.4,46.5,0.00,North,0,0.0,0.0,67,0.00,,,0.00,WUHU21623XXSP,2013-03-12 01:19:00,
2013-03-11 21:24:00,57.4,46.5,0.00,North,0,0.0,0.0,67,0.00,,,0.00,WUHU21623XXSP,2013-03-12 01:24:00,
2013-03-11 21:29:00,57.4,46.5,0.00,North,0,0.0,0.0,67,0.00,,,0.00,WUHU21623XXSP,2013-03-12 01:29:00,
2013-03-11 21:34:00,57.4,46.9,0.00,North,0,0.0,0.0,68,0.00,,,0.00,WUHU21623XXSP,2013-03-12 01:34:00,
2013-03-11 21:39:00,57.4,46.9,0.00,North,0,0.0,0.0,68,0.00,,,0.00,WUHU21623XXSP,2013-03-12 01:39:00,
2013-03-11 21:44:00,57.4,46.9,0.00,North,0,0.0,0.0,68,0.00,,,0.00,WUHU21623XXSP,2013-03-12 01:44:00,
2013-03-11 21:49:00,57.6,47.0,0.00,North,0,0.0,0.0,68,0.00,,,0.00,WUHU21623XXSP,2013-03-12 01:49:00,
2013-03-11 21:54:00,57.6,47.0,0.00,North,0,0.0,0.0,68,0.00,,,0.00,WUHU21623XXSP,2013-03-12 01:54:00,
2013-03-11 21:59:00,57.7,47.0,0.00,North,0,0.0,0.0,68,0.00,,,0.00,WUHU21623XXSP,2013-03-12 01:59:00,
2013-03-11 22:04:00,57.7,47.2,0.00,North,0,0.0,0.0,68,0.00,,,0.00,WUHU21623XXSP,2013-03-12 02:04:00,
2013-03-11 22:09:00,57.7,47.2,0.00,North,0,0.0,0.0,68,0.00,,,0.00,WUHU21623XXSP,2013-03-12 02:09:00,
2013-03-11 22:15:00,57.7,47.2,0.00,North,0,0.0,0.0,68,0.00,,,0.00,WUHU21623XXSP,2013-03-12 02:15:00,
2013-03-11 22:20:00,57.7,47.2,0.00,North,0,0.0,0.0,68,0.00,,,0.00,WUHU21623XXSP,2013-03-12 02:20:00,
2013-03-11 22:25:00,57.7,47.2,0.00,North,0,0.0,0.0,68,0.00,,,0.00,WUHU21623XXSP,2013-03-12 02:25:00,
2013-03-11 22:30:00,57.9,47.2,0.00,North,0,0.0,0.0,68,0.00,,,0.00,WUHU21623XXSP,2013-03-12 02:30:00,
2013-03-11 22:35:00,57.9,48.2,0.00,North,0,0.0,0.0,70,0.00,,,0.00,WUHU21623XXSP,2013-03-12 02:35:00,
2013-03-11 22:40:00,57.7,48.4,0.00,North,0,0.0,0.0,71,0.00,,,0.00,WUHU21623XXSP,2013-03-12 02:40:00,
2013-03-11 22:45:00,57.4,48.2,0.00,North,0,0.0,0.0,71,0.00,,,0.00,WUHU21623XXSP,2013-03-12 02:45:00,
2013-03-11 22:50:00,57.2,48.2,0.00,North,0,0.0,0.0,72,0.00,,,0.00,WUHU21623XXSP,2013-03-12 02:50:00,
2013-03-11 22:55:00,56.8,48.0,0.00,North,0,0.0,0.0,73,0.00,,,0.00,WUHU21623XXSP,2013-03-12 02:55:00,
2013-03-11 23:00:00,56.8,48.2,0.00,North,0,0.0,0.0,73,0.00,,,0.00,WUHU21623XXSP,2013-03-12 03:00:00,
2013-03-11 23:05:00,56.5,47.9,0.00,North,0,0.0,0.0,73,0.00,,,0.00,WUHU21623XXSP,2013-03-12 03:05:00,
2013-03-11 23:10:00,56.3,47.9,0.00,North,0,0.0,0.0,73,0.00,,,0.00,WUHU21623XXSP,2013-03-12 03:10:00,
2013-03-11 23:15:00,56.3,48.1,0.00,North,0,0.0,0.0,74,0.00,,,0.00,WUHU21623XXSP,2013-03-12 03:15:00,
2013-03-11 23:20:00,56.1,47.9,0.00,North,0,0.0,0.0,74,0.00,,,0.00,WUHU21623XXSP,2013-03-12 03:20:00,
2013-03-11 23:25:00,56.1,47.9,0.00,North,0,0.0,0.0,74,0.00,,,0.00,WUHU21623XXSP,2013-03-12 03:25:00,
2013-03-11 23:30:00,56.1,47.9,0.00,North,0,0.0,0.0,74,0.00,,,0.00,WUHU21623XXSP,2013-03-12 03:30:00,
2013-03-11 23:35:00,56.1,48.3,0.00,North,0,0.0,0.0,75,0.00,,,0.00,WUHU21623XXSP,2013-03-12 03:35:00,
2013-03-11 23:40:00,56.1,48.3,0.00,North,0,0.0,0.0,75,0.00,,,0.00,WUHU21623XXSP,2013-03-12 03:40:00,
2013-03-11 23:45:00,56.3,48.4,0.00,North,0,0.0,0.0,75,0.00,,,0.00,WUHU21623XXSP,2013-03-12 03:45:00,
2013-03-11 23:50:00,56.3,48.4,0.00,North,0,0.0,0.0,75,0.00,,,0.00,WUHU21623XXSP,2013-03-12 03:50:00,
2013-03-11 23:55:00,56.3,48.4,0.00,North,0,0.0,0.0,75,0.00,,,0.00,WUHU21623XXSP,2013-03-12 03:55:00,